Home > Weather > Fukuoka > Past weeks

Flag for Japan Past Weather in Fukuoka, Japan — Yesterday and Last 2 Weeks

Now
79 °F

Passing clouds.


Feels Like: 82 °F
Forecast: 78 / 89 °F
Wind: 6 mph from South

Location: Fukuoka Airport

Current Time: Jul 26, 2016 at 12:55:34 AM

Latest Report: Jul 26, 2016 at 12:30 AM


Visibility: N/A

Pressure: 29.86 "Hg

Humidity: 79%

Dew Point: 72 °F

Location of FukuokaLocation

Past Weather in Fukuoka — Graph

°F

Fukuoka Temperature Yesterday

Maximum temperature yesterday: 90 °F (at 10:00 AM)
Minimum temperature yesterday: 79 °F (at 10:00 PM)
Average temperature yesterday: 84 °F

High & Low Weather Summary for the Past Weeks

 TemperatureHumidityPressure
High93 °F (Jul 24, 10:50 AM)94% (Jul 12, 8:30 PM)29.89 "Hg (Jul 12, 8:30 PM)
Low73 °F (Jul 15, 11:30 PM)46% (Jul 19, 4:00 PM)29.50 "Hg (Jul 14, 1:30 PM)
Average81 °F72%29.74 "Hg
* Reported Jul 10 11:00 PM — Jul 25 11:30 PM, Fukuoka, Weather by CustomWeather, © 2016

Note: Actual official high and low records may vary slightly from our data, if they occured in-between our weather recording intervals... More about our weather records

Advertising

Fukuoka Weather History for the Previous 24 Hours

Scroll right to see more
 ConditionsComfort  
Time TempWeatherWind HumidityBarometerVisibility
11:30 PM
Mon, Jul 25
79 °FPassing clouds.7 mph79%29.86 "HgN/A
11:00 PM79 °FPassing clouds.8 mph79%29.86 "HgN/A
10:30 PM79 °FPassing clouds.5 mph84%29.86 "HgN/A
10:00 PM79 °FPassing clouds.6 mph84%29.86 "HgN/A
9:30 PM81 °FPassing clouds.8 mph79%29.86 "HgN/A
9:00 PM81 °FPassing clouds.9 mph79%29.86 "HgN/A
8:30 PM81 °FPassing clouds.8 mph79%29.86 "HgN/A
8:00 PM81 °FPassing clouds.8 mph79%29.83 "HgN/A
7:30 PM82 °FPassing clouds.8 mph74%29.86 "HgN/A
7:00 PM82 °FPartly sunny.8 mph74%29.86 "HgN/A
6:30 PM82 °FBroken clouds.8 mph74%29.86 "HgN/A
6:00 PM82 °FBroken clouds.8 mph74%29.86 "HgN/A
5:30 PM84 °FScattered showers. Broken clouds.2 mph70%29.86 "HgN/A
5:00 PM84 °FScattered showers. Broken clouds.7 mph70%29.86 "HgN/A
4:30 PM86 °FScattered showers. Broken clouds.5 mph66%29.86 "HgN/A
4:00 PM88 °FSprinkles. Broken clouds.10 mph55%29.86 "HgN/A
3:30 PM88 °FSprinkles. Broken clouds.9 mph59%29.83 "HgN/A
3:00 PM90 °FBroken clouds.9 mph55%29.83 "HgN/A
2:30 PM90 °FSprinkles. Broken clouds.9 mph59%29.86 "HgN/A
2:00 PM90 °FScattered showers. Partly sunny.10 mph59%29.86 "HgN/A
1:30 PM90 °FSprinkles. Partly sunny.10 mph59%29.86 "HgN/A
1:00 PM88 °FScattered clouds.9 mph62%29.86 "HgN/A
12:30 PM88 °FSprinkles. Partly sunny.9 mph59%29.86 "HgN/A
12:00 PM88 °FScattered showers. Scattered clouds.2 mph62%29.86 "HgN/A
11:30 AM84 °FSprinkles. Broken clouds.8 mph70%29.86 "HgN/A
11:00 AM86 °FSprinkles. Broken clouds.8 mph62%29.86 "HgN/A
10:30 AM88 °FSprinkles. Scattered clouds.5 mph59%29.86 "HgN/A
10:00 AM90 °FScattered clouds.5 mph59%29.86 "HgN/A
9:30 AM88 °FScattered clouds.1 mph62%29.86 "HgN/A
9:00 AM86 °FPassing clouds.5 mph66%29.89 "HgN/A
8:30 AM86 °FPassing clouds.5 mph66%29.89 "HgN/A
8:00 AM84 °FScattered clouds.8 mph66%29.89 "HgN/A
7:30 AM82 °FScattered clouds.10 mph74%29.86 "HgN/A
7:00 AM82 °FScattered clouds.7 mph70%29.86 "HgN/A
6:30 AM81 °FScattered clouds.7 mph74%29.86 "HgN/A
6:00 AM81 °FPartly sunny.7 mph74%29.86 "HgN/A
5:30 AM81 °FBroken clouds.8 mph74%29.86 "HgN/A
5:00 AM81 °FPassing clouds.7 mph74%29.86 "HgN/A
4:30 AM81 °FPassing clouds.8 mph74%29.86 "HgN/A
4:00 AM82 °FPassing clouds.7 mph74%29.86 "HgN/A
3:30 AM81 °FPartly cloudy.6 mph74%29.86 "HgN/A
3:00 AM81 °FPassing clouds.7 mph74%29.86 "HgN/A
2:30 AM81 °FPassing clouds.7 mph74%29.86 "HgN/A
2:00 AM81 °FPassing clouds.5 mph74%29.86 "HgN/A
1:30 AM82 °FClear.5 mph74%29.86 "Hg10 mi
1:00 AM82 °FPassing clouds.2 mph70%29.86 "HgN/A
12:30 AM81 °FPassing clouds.6 mph74%29.86 "HgN/A
12:00 AM82 °FPassing clouds.2 mph70%29.86 "HgN/A
Weather by CustomWeather, © 2016

See weather overviewHow to use our weather pages